| time (UTC) | temp C | wind direction | speed KPH | gust KPH | rain 1hr cm | rain 24hr cm | rain mn cm | humidity % | barometer mb |
| 20260508222507 | 25 | 89 | 0.0 | 1.6 | 0.00 | 0.00 | 0.00 | 83 | 1009.5 |
| 20260508222011 | 25 | 89 | 0.0 | 3.2 | 0.00 | 0.00 | 0.00 | 82 | 1009.5 |
| 20260508221524 | 25 | 94 | 0.0 | 3.2 | 0.00 | 0.00 | 0.00 | 82 | 1009.7 |
| 20260508221010 | 25 | 85 | 0.0 | 1.6 | 0.00 | 0.00 | 0.00 | 83 | 1009.7 |
| 20260508220507 | 25 | 83 | 0.0 | 1.6 | 0.00 | 0.00 | 0.00 | 83 | 1009.7 |
| 20260508220027 | 25 | 158 | 0.0 | 1.6 | 0.00 | 0.00 | 0.00 | 83 | 1009.7 |
| 20260508215508 | 25 | 226 | 0.0 | 0.0 | 0.00 | 0.00 | 0.00 | 83 | 1009.7 |
| 20260508215010 | 25 | 226 | 0.0 | 1.6 | 0.00 | 0.00 | 0.00 | 82 | 1009.9 |
| 20260508214522 | 25 | 226 | 0.0 | 1.6 | 0.00 | 0.00 | 0.00 | 82 | 1009.9 |
| 20260508214008 | 25 | 226 | 0.0 | 1.6 | 0.00 | 0.00 | 0.00 | 82 | 1010.1 |
| 20260508213506 | 25 | 77 | 0.0 | 1.6 | 0.00 | 0.00 | 0.00 | 82 | 1009.9 |
| 20260508213024 | 25 | 76 | 0.0 | 1.6 | 0.00 | 0.00 | 0.00 | 82 | 1009.9 |
| 20260508212505 | 26 | 79 | 0.0 | 1.6 | 0.00 | 0.00 | 0.00 | 81 | 1010.1 |
| 20260508212009 | 26 | 79 | 0.0 | 1.6 | 0.00 | 0.00 | 0.00 | 81 | 1010.2 |
| 20260508211517 | 25 | 79 | 0.0 | 3.2 | 0.00 | 0.00 | 0.00 | 81 | 1010.2 |
| 20260508211005 | 26 | 76 | 0.0 | 3.2 | 0.00 | 0.00 | 0.00 | 80 | 1010.1 |
| 20260508210507 | 26 | 99 | 0.0 | 3.2 | 0.00 | 0.00 | 0.00 | 80 | 1010.1 |
| 20260508210017 | 26 | 76 | 0.0 | 4.8 | 0.00 | 0.00 | 0.00 | 81 | 1010.0 |
| 20260508205507 | 25 | 41 | 1.6 | 4.8 | 0.00 | 0.00 | 0.00 | 82 | 1010.2 |
| 20260508205007 | 26 | 199 | 0.0 | 1.6 | 0.00 | 0.00 | 0.00 | 80 | 1010.4 |
| 20260508204518 | 25 | 199 | 0.0 | 1.6 | 0.00 | 0.00 | 0.00 | 81 | 1010.5 |
| 20260508204006 | 25 | 199 | 0.0 | 1.6 | 0.00 | 0.00 | 0.00 | 81 | 1010.5 |
| 20260508203507 | 25 | 251 | 0.0 | 1.6 | 0.00 | 0.00 | 0.00 | 80 | 1010.7 |
| 20260508203025 | 25 | 80 | 0.0 | 1.6 | 0.00 | 0.00 | 0.00 | 81 | 1010.6 |
| 20260508202505 | 25 | 247 | 0.0 | 1.6 | 0.00 | 0.00 | 0.00 | 83 | 1010.6 |
| 20260508202005 | 25 | 248 | 0.0 | 1.6 | 0.00 | 0.00 | 0.00 | 83 | 1010.7 |
| 20260508201516 | 25 | 240 | 0.0 | 1.6 | 0.00 | 0.00 | 0.00 | 83 | 1010.8 |
| 20260508201005 | 25 | 240 | 0.0 | 3.2 | 0.00 | 0.00 | 0.00 | 83 | 1010.9 |
| 20260508200507 | 24 | 255 | 0.0 | 3.2 | 0.00 | 0.00 | 0.00 | 84 | 1010.8 |
| 20260508200020 | 24 | 120 | 0.0 | 1.6 | 0.00 | 0.00 | 0.00 | 84 | 1010.8 |
| 20260508195508 | 24 | 88 | 0.0 | 1.6 | 0.00 | 0.00 | 0.00 | 84 | 1011.0 |
| 20260508195006 | 24 | 89 | 0.0 | 1.6 | 0.00 | 0.00 | 0.00 | 84 | 1011.0 |
| 20260508194520 | 24 | 89 | 0.0 | 1.6 | 0.00 | 0.00 | 0.00 | 84 | 1011.1 |
| 20260508194006 | 24 | 73 | 0.0 | 1.6 | 0.00 | 0.00 | 0.00 | 84 | 1011.2 |
| 20260508193503 | 24 | 72 | 0.0 | 3.2 | 0.00 | 0.00 | 0.00 | 85 | 1011.1 |
| 20260508193024 | 24 | 73 | 0.0 | 3.2 | 0.00 | 0.00 | 0.00 | 83 | 1011.1 |
| 20260508192507 | 24 | 81 | 0.0 | 1.6 | 0.00 | 0.00 | 0.00 | 83 | 1011.3 |
| 20260508192008 | 24 | 80 | 0.0 | 1.6 | 0.00 | 0.00 | 0.00 | 83 | 1011.4 |
| 20260508191534 | 24 | 95 | 0.0 | 3.2 | 0.00 | 0.00 | 0.00 | 83 | 1011.4 |
| 20260508191007 | 24 | 94 | 0.0 | 3.2 | 0.00 | 0.00 | 0.00 | 83 | 1011.4 |
| 20260508190505 | 23 | 123 | 0.0 | 1.6 | 0.00 | 0.00 | 0.00 | 84 | 1011.5 |
| 20260508190030 | 23 | 73 | 0.0 | 3.2 | 0.00 | 0.00 | 0.00 | 84 | 1011.5 |
| 20260508185506 | 23 | 72 | 0.0 | 3.2 | 0.00 | 0.00 | 0.00 | 84 | 1011.4 |
| 20260508185007 | 23 | 77 | 1.6 | 3.2 | 0.00 | 0.00 | 0.00 | 83 | 1011.5 |
| 20260508184524 | 24 | 74 | 1.6 | 3.2 | 0.00 | 0.00 | 0.00 | 82 | 1011.4 |
| 20260508184007 | 24 | 52 | 0.0 | 1.6 | 0.00 | 0.00 | 0.00 | 83 | 1011.5 |
| 20260508183506 | 23 | 88 | 0.0 | 3.2 | 0.00 | 0.00 | 0.00 | 83 | 1011.7 |
| 20260508183027 | 24 | 49 | 1.6 | 3.2 | 0.00 | 0.00 | 0.00 | 82 | 1011.8 |
| 20260508182508 | 23 | 258 | 0.0 | 3.2 | 0.00 | 0.00 | 0.00 | 84 | 1011.8 |
| 20260508182007 | 23 | 72 | 0.0 | 3.2 | 0.00 | 0.00 | 0.00 | 83 | 1011.7 |
| 20260508181515 | 23 | 51 | 1.6 | 3.2 | 0.00 | 0.00 | 0.00 | 84 | 1011.6 |
| 20260508181005 | 22 | 94 | 0.0 | 3.2 | 0.00 | 0.00 | 0.00 | 84 | 1011.6 |
| 20260508180509 | 22 | 81 | 0.0 | 3.2 | 0.00 | 0.00 | 0.00 | 84 | 1012.0 |
| 20260508180016 | 22 | 160 | 0.0 | 0.0 | 0.00 | 0.00 | 0.00 | 84 | 1011.9 |
| 20260508175503 | 22 | 162 | 0.0 | 0.0 | 0.00 | 0.00 | 0.00 | 85 | 1012.0 |
| 20260508175007 | 22 | 162 | 0.0 | 1.6 | 0.00 | 0.00 | 0.00 | 84 | 1012.2 |
| 20260508174510 | 22 | 181 | 0.0 | 1.6 | 0.00 | 0.00 | 0.00 | 84 | 1012.5 |
| 20260508174002 | 22 | 200 | 0.0 | 1.6 | 0.00 | 0.00 | 0.00 | 84 | 1012.6 |
| 20260508173508 | 22 | 70 | 0.0 | 1.6 | 0.00 | 0.00 | 0.00 | 84 | 1012.7 |
| 20260508173008 | 22 | 69 | 0.0 | 1.6 | 0.00 | 0.00 | 0.00 | 85 | 1012.6 |
| 20260508172506 | 22 | 68 | 0.0 | 1.6 | 0.00 | 0.00 | 0.00 | 84 | 1012.8 |
| 20260508172008 | 22 | 68 | 0.0 | 1.6 | 0.00 | 0.00 | 0.00 | 84 | 1012.8 |
| 20260508171508 | 22 | 68 | 0.0 | 3.2 | 0.00 | 0.00 | 0.00 | 84 | 1012.8 |
| 20260508171007 | 22 | 72 | 0.0 | 3.2 | 0.00 | 0.00 | 0.00 | 84 | 1012.7 |
| 20260508170502 | 22 | 72 | 0.0 | 3.2 | 0.00 | 0.00 | 0.00 | 83 | 1012.5 |
| 20260508170008 | 22 | 63 | 0.0 | 3.2 | 0.00 | 0.00 | 0.00 | 83 | 1012.5 |
| 20260508165507 | 22 | 59 | 0.0 | 3.2 | 0.00 | 0.00 | 0.00 | 84 | 1012.7 |
| 20260508165004 | 22 | 105 | 0.0 | 3.2 | 0.00 | 0.00 | 0.00 | 84 | 1012.8 |
| 20260508164523 | 22 | 71 | 0.0 | 3.2 | 0.00 | 0.00 | 0.00 | 85 | 1012.8 |
| 20260508164006 | 21 | 71 | 0.0 | 3.2 | 0.00 | 0.00 | 0.00 | 84 | 1012.9 |
| 20260508163502 | 21 | 92 | 1.6 | 3.2 | 0.00 | 0.00 | 0.00 | 84 | 1012.9 |
| 20260508163022 | 21 | 70 | 1.6 | 3.2 | 0.00 | 0.00 | 0.00 | 84 | 1013.1 |
| 20260508162503 | 21 | 84 | 0.0 | 3.2 | 0.00 | 0.00 | 0.00 | 84 | 1013.1 |
| 20260508162004 | 21 | 76 | 1.6 | 3.2 | 0.00 | 0.00 | 0.00 | 85 | 1013.1 |
| 20260508161518 | 21 | 76 | 0.0 | 3.2 | 0.00 | 0.00 | 0.00 | 85 | 1013.1 |
| 20260508161003 | 21 | 82 | 0.0 | 3.2 | 0.00 | 0.00 | 0.00 | 85 | 1013.1 |
| 20260508160506 | 21 | 77 | 1.6 | 3.2 | 0.00 | 0.00 | 0.00 | 84 | 1012.9 |
| 20260508160016 | 21 | 91 | 0.0 | 1.6 | 0.00 | 0.00 | 0.00 | 85 | 1013.0 |
| 20260508155502 | 21 | 91 | 0.0 | 3.2 | 0.00 | 0.00 | 0.00 | 85 | 1013.1 |
| 20260508155008 | 21 | 86 | 0.0 | 3.2 | 0.00 | 0.00 | 0.00 | 85 | 1013.2 |
| 20260508154514 | 21 | 78 | 0.0 | 3.2 | 0.00 | 0.00 | 0.00 | 85 | 1013.3 |
| 20260508154007 | 20 | 73 | 1.6 | 3.2 | 0.00 | 0.00 | 0.00 | 85 | 1013.4 |
| 20260508153506 | 20 | 80 | 1.6 | 3.2 | 0.00 | 0.00 | 0.00 | 86 | 1013.6 |
| 20260508153010 | 20 | 56 | 0.0 | 3.2 | 0.00 | 0.00 | 0.00 | 86 | 1013.6 |
| 20260508152507 | 20 | 81 | 0.0 | 3.2 | 0.00 | 0.00 | 0.00 | 88 | 1013.7 |
| 20260508152007 | 20 | 78 | 0.0 | 1.6 | 0.00 | 0.00 | 0.00 | 88 | 1013.8 |
| 20260508151526 | 20 | 90 | 0.0 | 3.2 | 0.00 | 0.00 | 0.00 | 87 | 1013.7 |
| 20260508151010 | 19 | 93 | 0.0 | 3.2 | 0.00 | 0.00 | 0.00 | 88 | 1013.7 |
| 20260508150507 | 19 | 70 | 0.0 | 3.2 | 0.00 | 0.00 | 0.00 | 87 | 1013.8 |
| 20260508150026 | 19 | 98 | 0.0 | 3.2 | 0.00 | 0.00 | 0.00 | 87 | 1013.9 |
| 20260508145508 | 19 | 72 | 0.0 | 3.2 | 0.00 | 0.00 | 0.00 | 87 | 1013.9 |
| 20260508145012 | 19 | 92 | 0.0 | 3.2 | 0.00 | 0.00 | 0.00 | 88 | 1013.9 |
| 20260508144522 | 19 | 86 | 0.0 | 4.8 | 0.00 | 0.00 | 0.00 | 89 | 1013.9 |
| 20260508144008 | 19 | 89 | 1.6 | 4.8 | 0.00 | 0.00 | 0.00 | 88 | 1013.9 |
| 20260508143518 | 19 | 120 | 0.0 | 1.6 | 0.00 | 0.00 | 0.00 | 89 | 1014.0 |
| 20260508143021 | 18 | 61 | 0.0 | 1.6 | 0.00 | 0.00 | 0.00 | 90 | 1013.9 |
| 20260508142510 | 18 | 60 | 0.0 | 1.6 | 0.00 | 0.00 | 0.00 | 90 | 1014.0 |
| 20260508142011 | 18 | 218 | 0.0 | 1.6 | 0.00 | 0.00 | 0.00 | 89 | 1014.2 |
| 20260508141519 | 18 | 67 | 0.0 | 1.6 | 0.00 | 0.00 | 0.00 | 89 | 1014.1 |
| 20260508141010 | 18 | 344 | 0.0 | 0.0 | 0.00 | 0.00 | 0.00 | 89 | 1014.0 |
| 20260508140509 | 18 | 305 | 0.0 | 0.0 | 0.00 | 0.00 | 0.00 | 89 | 1014.0 |
| 20260508140027 | 18 | 350 | 0.0 | 4.8 | 0.00 | 0.00 | 0.00 | 89 | 1014.0 |
| 20260508135511 | 18 | 349 | 0.0 | 4.8 | 0.00 | 0.00 | 0.00 | 89 | 1014.0 |
| 20260508135007 | 18 | 339 | 0.0 | 3.2 | 0.00 | 0.00 | 0.00 | 89 | 1014.0 |
| 20260508134529 | 18 | 313 | 0.0 | 3.2 | 0.00 | 0.00 | 0.00 | 89 | 1013.9 |
| 20260508134008 | 18 | 340 | 0.0 | 1.6 | 0.00 | 0.00 | 0.00 | 89 | 1014.0 |
| 20260508133507 | 18 | 269 | 0.0 | 1.6 | 0.00 | 0.00 | 0.00 | 89 | 1014.0 |
| 20260508133028 | 18 | 259 | 0.0 | 1.6 | 0.00 | 0.00 | 0.00 | 89 | 1013.9 |
| 20260508132508 | 18 | 259 | 0.0 | 1.6 | 0.00 | 0.00 | 0.00 | 90 | 1013.8 |
| 20260508132010 | 18 | 259 | 0.0 | 0.0 | 0.00 | 0.00 | 0.00 | 90 | 1013.7 |
| 20260508131531 | 18 | 142 | 0.0 | 0.0 | 0.00 | 0.00 | 0.00 | 90 | 1013.5 |
| 20260508131009 | 18 | 142 | 0.0 | 0.0 | 0.00 | 0.00 | 0.00 | 91 | 1013.6 |
| 20260508130514 | 18 | 142 | 0.0 | 1.6 | 0.00 | 0.00 | 0.00 | 91 | 1013.5 |
| 20260508130026 | 18 | 142 | 0.0 | 1.6 | 0.00 | 0.00 | 0.00 | 91 | 1013.4 |
| 20260508125507 | 18 | 94 | 0.0 | 0.0 | 0.00 | 0.00 | 0.00 | 91 | 1013.5 |
| 20260508125007 | 18 | 94 | 0.0 | 0.0 | 0.00 | 0.00 | 0.00 | 91 | 1013.4 |
| 20260508124525 | 17 | 95 | 0.0 | 1.6 | 0.00 | 0.00 | 0.00 | 91 | 1013.2 |
| 20260508124010 | 18 | 95 | 0.0 | 1.6 | 0.00 | 0.00 | 0.00 | 90 | 1013.1 |
| 20260508123509 | 18 | 87 | 0.0 | 1.6 | 0.00 | 0.00 | 0.00 | 90 | 1013.4 |
| 20260508123022 | 18 | 86 | 0.0 | 0.0 | 0.00 | 0.00 | 0.00 | 90 | 1013.7 |
| 20260508122508 | 18 | 86 | 0.0 | 0.0 | 0.00 | 0.00 | 0.00 | 90 | 1014.0 |
| 20260508122010 | 18 | 86 | 0.0 | 0.0 | 0.00 | 0.00 | 0.00 | 89 | 1014.0 |
| 20260508121522 | 18 | 86 | 0.0 | 0.0 | 0.00 | 0.00 | 0.00 | 89 | 1013.7 |
| 20260508121005 | 18 | 86 | 0.0 | 0.0 | 0.00 | 0.00 | 0.00 | 88 | 1013.5 |
| 20260508120503 | 18 | 86 | 0.0 | 1.6 | 0.00 | 0.00 | 0.00 | 88 | 1013.4 |
| 20260508120031 | 18 | 86 | 0.0 | 1.6 | 0.00 | 0.00 | 0.00 | 87 | 1013.4 |
| 20260508115504 | 18 | 87 | 0.0 | 1.6 | 0.00 | 0.00 | 0.00 | 87 | 1013.6 |
| 20260508115007 | 18 | 281 | 0.0 | 0.0 | 0.00 | 0.00 | 0.00 | 87 | 1013.5 |
| 20260508114514 | 18 | 281 | 0.0 | 1.6 | 0.00 | 0.00 | 0.00 | 87 | 1013.5 |
| 20260508114003 | 18 | 281 | 0.0 | 1.6 | 0.00 | 0.00 | 0.00 | 87 | 1013.5 |
| 20260508113508 | 18 | 281 | 0.0 | 1.6 | 0.00 | 0.00 | 0.00 | 86 | 1013.6 |
| 20260508113014 | 18 | 280 | 0.0 | 0.0 | 0.00 | 0.00 | 0.00 | 86 | 1013.7 |
| 20260508112513 | 18 | 281 | 0.0 | 0.0 | 0.00 | 0.00 | 0.00 | 86 | 1013.8 |
| 20260508112007 | 18 | 281 | 0.0 | 0.0 | 0.00 | 0.00 | 0.00 | 86 | 1013.8 |
| 20260508111509 | 18 | 280 | 0.0 | 0.0 | 0.00 | 0.00 | 0.00 | 86 | 1013.5 |
| 20260508111014 | 18 | 280 | 0.0 | 1.6 | 0.00 | 0.00 | 0.00 | 86 | 1013.7 |
| 20260508110507 | 18 | 303 | 0.0 | 1.6 | 0.00 | 0.00 | 0.00 | 86 | 1013.7 |
| 20260508110025 | 18 | 159 | 0.0 | 0.0 | 0.00 | 0.00 | 0.00 | 86 | 1013.5 |
| 20260508105509 | 18 | 159 | 0.0 | 0.0 | 0.00 | 0.00 | 0.00 | 86 | 1013.4 |
| 20260508105010 | 18 | 159 | 0.0 | 0.0 | 0.00 | 0.00 | 0.00 | 86 | 1013.2 |
| 20260508104526 | 18 | 119 | 0.0 | 0.0 | 0.00 | 0.00 | 0.00 | 86 | 1013.3 |
| 20260508104006 | 18 | 119 | 0.0 | 1.6 | 0.00 | 0.00 | 0.00 | 85 | 1013.3 |
| 20260508103505 | 18 | 119 | 0.0 | 1.6 | 0.00 | 0.00 | 0.00 | 85 | 1013.1 |
| 20260508103026 | 18 | 146 | 0.0 | 1.6 | 0.00 | 0.00 | 0.00 | 85 | 1013.4 |
| 20260508102506 | 18 | 86 | 0.0 | 1.6 | 0.00 | 0.00 | 0.00 | 85 | 1013.3 |
| 20260508102005 | 18 | 86 | 0.0 | 1.6 | 0.00 | 0.00 | 0.00 | 85 | 1013.4 |
| 20260508101521 | 18 | 352 | 0.0 | 0.0 | 0.00 | 0.00 | 0.00 | 85 | 1013.7 |
| 20260508101003 | 18 | 350 | 0.0 | 0.0 | 0.00 | 0.00 | 0.00 | 85 | 1013.8 |
| 20260508100506 | 18 | 351 | 0.0 | 0.0 | 0.00 | 0.00 | 0.00 | 85 | 1013.8 |
| 20260508100018 | 18 | 350 | 0.0 | 0.0 | 0.00 | 0.00 | 0.00 | 85 | 1013.8 |
| 20260508095504 | 18 | 350 | 0.0 | 0.0 | 0.00 | 0.00 | 0.00 | 85 | 1013.9 |
| 20260508095012 | 18 | 350 | 0.0 | 1.6 | 0.00 | 0.00 | 0.00 | 85 | 1013.9 |
| 20260508094515 | 18 | 350 | 0.0 | 1.6 | 0.00 | 0.00 | 0.00 | 85 | 1013.5 |
| 20260508094010 | 18 | 71 | 0.0 | 1.6 | 0.00 | 0.00 | 0.00 | 84 | 1013.0 |
| 20260508093506 | 18 | 72 | 0.0 | 0.0 | 0.00 | 0.00 | 0.00 | 84 | 1013.2 |
| 20260508093015 | 18 | 339 | 0.0 | 0.0 | 0.00 | 0.00 | 0.00 | 84 | 1013.4 |
| 20260508092509 | 18 | 339 | 0.0 | 0.0 | 0.00 | 0.00 | 0.00 | 84 | 1013.5 |
| 20260508092007 | 18 | 339 | 0.0 | 0.0 | 0.00 | 0.00 | 0.00 | 84 | 1013.4 |
| 20260508091512 | 18 | 339 | 0.0 | 0.0 | 0.00 | 0.00 | 0.00 | 84 | 1013.3 |
| 20260508091008 | 18 | 340 | 0.0 | 0.0 | 0.00 | 0.00 | 0.00 | 84 | 1013.2 |
| 20260508090506 | 18 | 340 | 0.0 | 0.0 | 0.00 | 0.00 | 0.00 | 83 | 1013.2 |
| 20260508090024 | 18 | 340 | 0.0 | 0.0 | 0.00 | 0.00 | 0.00 | 83 | 1013.1 |
| 20260508085510 | 18 | 340 | 0.0 | 0.0 | 0.00 | 0.00 | 0.00 | 83 | 1013.1 |
| 20260508085004 | 18 | 337 | 0.0 | 0.0 | 0.00 | 0.00 | 0.00 | 83 | 1013.2 |
| 20260508084526 | 18 | 336 | 0.0 | 0.0 | 0.00 | 0.00 | 0.00 | 84 | 1013.4 |
| 20260508084007 | 18 | 337 | 0.0 | 0.0 | 0.00 | 0.00 | 0.00 | 84 | 1013.4 |
| 20260508083502 | 18 | 336 | 0.0 | 0.0 | 0.00 | 0.00 | 0.00 | 83 | 1013.4 |
| 20260508083028 | 18 | 337 | 0.0 | 0.0 | 0.00 | 0.00 | 0.00 | 83 | 1013.5 |
| 20260508082507 | 18 | 337 | 0.0 | 0.0 | 0.00 | 0.00 | 0.00 | 83 | 1013.4 |
| 20260508082008 | 18 | 336 | 0.0 | 0.0 | 0.00 | 0.00 | 0.00 | 84 | 1013.5 |
| 20260508081524 | 18 | 336 | 0.0 | 0.0 | 0.00 | 0.00 | 0.00 | 83 | 1013.6 |
| 20260508081007 | 18 | 337 | 0.0 | 0.0 | 0.00 | 0.00 | 0.00 | 83 | 1013.4 |
| 20260508080509 | 18 | 337 | 0.0 | 0.0 | 0.00 | 0.00 | 0.00 | 83 | 1013.4 |
| 20260508080022 | 18 | 336 | 0.0 | 0.0 | 0.00 | 0.00 | 0.00 | 84 | 1013.5 |
| 20260508075503 | 18 | 337 | 0.0 | 0.0 | 0.00 | 0.00 | 0.00 | 83 | 1013.5 |
| 20260508075006 | 18 | 337 | 0.0 | 0.0 | 0.00 | 0.00 | 0.00 | 82 | 1013.5 |
| 20260508074522 | 18 | 337 | 0.0 | 0.0 | 0.00 | 0.00 | 0.00 | 83 | 1013.7 |
| 20260508074011 | 18 | 337 | 0.0 | 0.0 | 0.00 | 0.00 | 0.00 | 82 | 1013.7 |
| 20260508073507 | 18 | 311 | 0.0 | 0.0 | 0.00 | 0.00 | 0.00 | 83 | 1014.1 |
| 20260508073017 | 18 | 311 | 0.0 | 0.0 | 0.00 | 0.00 | 0.00 | 83 | 1014.1 |
| 20260508072509 | 18 | 311 | 0.0 | 0.0 | 0.00 | 0.00 | 0.00 | 82 | 1014.0 |
| 20260508072005 | 18 | 311 | 0.0 | 0.0 | 0.00 | 0.00 | 0.00 | 83 | 1014.1 |
| 20260508071526 | 18 | 311 | 0.0 | 0.0 | 0.00 | 0.00 | 0.00 | 82 | 1013.9 |
| 20260508071012 | 18 | 311 | 0.0 | 0.0 | 0.00 | 0.00 | 0.00 | 82 | 1013.9 |
| 20260508070503 | 18 | 311 | 0.0 | 0.0 | 0.00 | 0.00 | 0.00 | 82 | 1014.0 |
| 20260508070029 | 18 | 311 | 0.0 | 0.0 | 0.00 | 0.00 | 0.00 | 82 | 1014.0 |
| 20260508065509 | 18 | 311 | 0.0 | 0.0 | 0.00 | 0.00 | 0.00 | 82 | 1014.0 |
| 20260508065007 | 18 | 311 | 0.0 | 1.6 | 0.00 | 0.00 | 0.00 | 83 | 1014.0 |
| 20260508064529 | 18 | 311 | 0.0 | 1.6 | 0.00 | 0.00 | 0.00 | 83 | 1014.1 |
| 20260508064006 | 18 | 339 | 0.0 | 1.6 | 0.00 | 0.00 | 0.00 | 83 | 1014.0 |
| 20260508063514 | 18 | 334 | 0.0 | 0.0 | 0.00 | 0.00 | 0.00 | 83 | 1014.2 |
| 20260508063024 | 18 | 335 | 0.0 | 0.0 | 0.00 | 0.00 | 0.00 | 83 | 1014.4 |
| 20260508062507 | 18 | 334 | 0.0 | 0.0 | 0.00 | 0.00 | 0.00 | 84 | 1014.1 |
| 20260508062011 | 18 | 334 | 0.0 | 1.6 | 0.00 | 0.00 | 0.00 | 84 | 1014.1 |
| 20260508061528 | 18 | 334 | 0.0 | 1.6 | 0.00 | 0.00 | 0.00 | 84 | 1014.5 |
| 20260508061004 | 18 | 334 | 0.0 | 1.6 | 0.00 | 0.00 | 0.00 | 85 | 1014.4 |
| 20260508060516 | 18 | 59 | 0.0 | 0.0 | 0.00 | 0.00 | 0.00 | 85 | 1014.0 |
| 20260508060024 | 18 | 59 | 0.0 | 0.0 | 0.00 | 0.00 | 0.00 | 84 | 1013.9 |
| 20260508055510 | 18 | 59 | 0.0 | 0.0 | 0.00 | 0.00 | 0.00 | 85 | 1013.7 |
| 20260508055009 | 18 | 59 | 0.0 | 0.0 | 0.00 | 0.00 | 0.00 | 85 | 1013.7 |
| 20260508054519 | 18 | 59 | 0.0 | 0.0 | 0.00 | 0.00 | 0.00 | 85 | 1014.0 |
| 20260508054011 | 18 | 59 | 0.0 | 0.0 | 0.00 | 0.00 | 0.00 | 85 | 1014.1 |
| 20260508053510 | 18 | 59 | 0.0 | 0.0 | 0.00 | 0.00 | 0.00 | 85 | 1014.3 |
| 20260508053031 | 18 | 59 | 0.0 | 0.0 | 0.00 | 0.00 | 0.00 | 84 | 1014.2 |
| 20260508052514 | 18 | 60 | 0.0 | 0.0 | 0.00 | 0.00 | 0.00 | 84 | 1013.8 |
| 20260508052008 | 18 | 60 | 0.0 | 0.0 | 0.00 | 0.00 | 0.00 | 84 | 1013.6 |
| 20260508051530 | 18 | 60 | 0.0 | 0.0 | 0.00 | 0.00 | 0.00 | 83 | 1013.6 |
| 20260508051008 | 18 | 58 | 0.0 | 0.0 | 0.00 | 0.00 | 0.00 | 84 | 1013.9 |
| 20260508050507 | 18 | 58 | 0.0 | 0.0 | 0.00 | 0.00 | 0.00 | 83 | 1013.9 |
| 20260508050029 | 18 | 58 | 0.0 | 0.0 | 0.00 | 0.00 | 0.00 | 83 | 1014.0 |
| 20260508045508 | 18 | 58 | 0.0 | 0.0 | 0.00 | 0.00 | 0.00 | 83 | 1013.9 |
| 20260508045011 | 18 | 58 | 0.0 | 0.0 | 0.00 | 0.00 | 0.00 | 82 | 1014.1 |
| 20260508044525 | 18 | 58 | 0.0 | 0.0 | 0.00 | 0.00 | 0.00 | 82 | 1014.0 |
| 20260508044008 | 18 | 58 | 0.0 | 0.0 | 0.00 | 0.00 | 0.00 | 82 | 1013.9 |
| 20260508043510 | 18 | 58 | 0.0 | 0.0 | 0.00 | 0.00 | 0.00 | 83 | 1013.9 |
| 20260508043024 | 18 | 58 | 0.0 | 0.0 | 0.00 | 0.00 | 0.00 | 83 | 1013.9 |
| 20260508042507 | 18 | 58 | 0.0 | 0.0 | 0.00 | 0.00 | 0.00 | 82 | 1014.1 |
| 20260508042010 | 18 | 58 | 0.0 | 0.0 | 0.00 | 0.00 | 0.00 | 82 | 1014.1 |
| 20260508041526 | 18 | 58 | 0.0 | 0.0 | 0.00 | 0.00 | 0.00 | 83 | 1014.0 |
| 20260508041011 | 18 | 58 | 0.0 | 1.6 | 0.00 | 0.00 | 0.00 | 82 | 1014.2 |
| 20260508040507 | 18 | 58 | 0.0 | 1.6 | 0.00 | 0.00 | 0.00 | 82 | 1014.3 |
| 20260508040024 | 18 | 58 | 0.0 | 0.0 | 0.00 | 0.00 | 0.00 | 82 | 1014.3 |
| 20260508035512 | 18 | 58 | 0.0 | 0.0 | 0.00 | 0.00 | 0.00 | 83 | 1014.4 |
| 20260508035009 | 18 | 58 | 0.0 | 1.6 | 0.00 | 0.00 | 0.00 | 83 | 1014.1 |
| 20260508034529 | 18 | 58 | 0.0 | 1.6 | 0.00 | 0.00 | 0.00 | 83 | 1013.9 |
| 20260508034012 | 18 | 58 | 0.0 | 0.0 | 0.00 | 0.00 | 0.00 | 84 | 1013.8 |
| 20260508033507 | 18 | 58 | 0.0 | 1.6 | 0.00 | 0.00 | 0.00 | 84 | 1014.1 |
| 20260508033028 | 18 | 58 | 0.0 | 1.6 | 0.00 | 0.00 | 0.00 | 84 | 1014.0 |
| 20260508032510 | 18 | 58 | 0.0 | 1.6 | 0.00 | 0.00 | 0.00 | 84 | 1013.7 |
| 20260508032009 | 18 | 323 | 0.0 | 0.0 | 0.00 | 0.00 | 0.00 | 83 | 1014.0 |
| 20260508031513 | 18 | 323 | 0.0 | 0.0 | 0.00 | 0.00 | 0.00 | 83 | 1014.0 |
| 20260508031003 | 18 | 323 | 0.0 | 0.0 | 0.00 | 0.00 | 0.00 | 83 | 1014.0 |
| 20260508030506 | 18 | 323 | 0.0 | 0.0 | 0.00 | 0.00 | 0.00 | 82 | 1014.1 |
| 20260508030013 | 18 | 323 | 0.0 | 0.0 | 0.00 | 0.00 | 0.00 | 81 | 1014.1 |
| 20260508025510 | 18 | 323 | 0.0 | 0.0 | 0.00 | 0.00 | 0.00 | 82 | 1014.2 |
| 20260508025006 | 19 | 323 | 0.0 | 0.0 | 0.00 | 0.00 | 0.00 | 81 | 1014.2 |
| 20260508024511 | 19 | 323 | 0.0 | 0.0 | 0.00 | 0.00 | 0.00 | 81 | 1014.4 |
| 20260508024007 | 19 | 323 | 0.0 | 0.0 | 0.00 | 0.00 | 0.00 | 80 | 1014.5 |
| 20260508023504 | 19 | 323 | 0.0 | 3.2 | 0.00 | 0.00 | 0.00 | 80 | 1014.5 |
| 20260508023009 | 19 | 324 | 0.0 | 3.2 | 0.00 | 0.00 | 0.00 | 79 | 1014.6 |
| 20260508022505 | 19 | 323 | 0.0 | 1.6 | 0.00 | 0.00 | 0.00 | 79 | 1014.5 |
| 20260508022006 | 19 | 320 | 0.0 | 1.6 | 0.00 | 0.00 | 0.00 | 80 | 1014.4 |
| 20260508021527 | 19 | 323 | 0.0 | 1.6 | 0.00 | 0.00 | 0.00 | 80 | 1014.2 |
| 20260508021009 | 19 | 329 | 0.0 | 1.6 | 0.00 | 0.00 | 0.00 | 80 | 1014.5 |
| 20260508020503 | 19 | 332 | 0.0 | 0.0 | 0.00 | 0.00 | 0.00 | 81 | 1014.2 |
| 20260508020034 | 19 | 332 | 0.0 | 0.0 | 0.00 | 0.00 | 0.00 | 81 | 1014.3 |
| 20260508015504 | 19 | 333 | 0.0 | 1.6 | 0.00 | 0.00 | 0.00 | 81 | 1014.4 |
| 20260508015003 | 19 | 332 | 0.0 | 1.6 | 0.00 | 0.00 | 0.00 | 81 | 1014.5 |
| 20260508014522 | 20 | 332 | 0.0 | 0.0 | 0.00 | 0.00 | 0.00 | 81 | 1014.4 |
| 20260508014008 | 20 | 333 | 0.0 | 0.0 | 0.00 | 0.00 | 0.00 | 82 | 1014.4 |
| 20260508013511 | 20 | 332 | 0.0 | 0.0 | 0.00 | 0.00 | 0.00 | 81 | 1014.4 |
| 20260508013017 | 20 | 332 | 0.0 | 0.0 | 0.00 | 0.00 | 0.00 | 80 | 1014.5 |
| 20260508012504 | 20 | 332 | 0.0 | 0.0 | 0.00 | 0.00 | 0.00 | 80 | 1014.3 |
| 20260508012007 | 20 | 332 | 0.0 | 0.0 | 0.00 | 0.00 | 0.00 | 80 | 1014.2 |
| 20260508011519 | 20 | 332 | 0.0 | 0.0 | 0.00 | 0.00 | 0.00 | 80 | 1014.2 |
| 20260508011013 | 20 | 332 | 0.0 | 1.6 | 0.00 | 0.00 | 0.00 | 79 | 1014.2 |
| 20260508010508 | 20 | 332 | 0.0 | 1.6 | 0.00 | 0.00 | 0.00 | 78 | 1014.3 |
| 20260508010014 | 20 | 332 | 0.0 | 1.6 | 0.00 | 0.00 | 0.00 | 77 | 1014.2 |
| 20260508005507 | 21 | 341 | 0.0 | 1.6 | 0.00 | 0.00 | 0.00 | 77 | 1014.2 |
| 20260508005004 | 21 | 342 | 0.0 | 1.6 | 0.00 | 0.00 | 0.00 | 77 | 1014.2 |
| 20260508004510 | 21 | 337 | 0.0 | 1.6 | 0.00 | 0.00 | 0.00 | 76 | 1014.0 |
| 20260508004013 | 21 | 338 | 0.0 | 0.0 | 0.00 | 0.00 | 0.00 | 76 | 1014.1 |
| 20260508003504 | 21 | 337 | 0.0 | 0.0 | 0.00 | 0.00 | 0.00 | 76 | 1014.1 |
| 20260508003027 | 21 | 337 | 0.0 | 0.0 | 0.00 | 0.00 | 0.00 | 77 | 1013.7 |
| 20260508002509 | 21 | 337 | 0.0 | 1.6 | 0.00 | 0.00 | 0.00 | 76 | 1013.8 |
| 20260508002008 | 21 | 338 | 0.0 | 1.6 | 0.00 | 0.00 | 0.00 | 74 | 1014.1 |
| 20260508001525 | 22 | 338 | 0.0 | 1.6 | 0.00 | 0.00 | 0.00 | 75 | 1014.3 |
| 20260508001008 | 22 | 338 | 0.0 | 4.8 | 0.00 | 0.00 | 0.00 | 74 | 1014.4 |
| 20260508000505 | 22 | 2 | 0.0 | 6.4 | 0.00 | 0.00 | 0.00 | 73 | 1014.4 |
| 20260508000024 | 22 | 306 | 0.0 | 6.4 | 0.00 | 0.00 | 0.00 | 72 | 1014.4 |
| 20260507235508 | 22 | 288 | 1.6 | 4.8 | 0.00 | 0.00 | 0.00 | 71 | 1014.3 |
| 20260507235009 | 22 | 255 | 0.0 | 1.6 | 0.00 | 0.00 | 0.00 | 72 | 1014.3 |
| 20260507234531 | 22 | 97 | 0.0 | 6.4 | 0.00 | 0.00 | 0.00 | 72 | 1014.4 |
| 20260507234003 | 23 | 355 | 1.6 | 6.4 | 0.00 | 0.00 | 0.00 | 70 | 1014.4 |
| 20260507233507 | 23 | 324 | 0.0 | 6.4 | 0.00 | 0.00 | 0.00 | 70 | 1014.4 |
| 20260507233022 | 23 | 328 | 1.6 | 6.4 | 0.00 | 0.00 | 0.00 | 70 | 1014.4 |
| 20260507232511 | 23 | 240 | 0.0 | 1.6 | 0.00 | 0.00 | 0.00 | 71 | 1014.5 |
| 20260507232007 | 23 | 240 | 0.0 | 1.6 | 0.00 | 0.00 | 0.00 | 70 | 1014.3 |
| 20260507231517 | 23 | 12 | 0.0 | 1.6 | 0.00 | 0.00 | 0.00 | 72 | 1014.4 |
| 20260507231009 | 23 | 12 | 0.0 | 1.6 | 0.00 | 0.00 | 0.00 | 71 | 1014.2 |
| 20260507230510 | 23 | 340 | 0.0 | 1.6 | 0.00 | 0.00 | 0.00 | 72 | 1014.3 |
| 20260507230015 | 23 | 340 | 0.0 | 3.2 | 0.00 | 0.00 | 0.00 | 70 | 1014.4 |
| 20260507225508 | 23 | 323 | 0.0 | 3.2 | 0.00 | 0.00 | 0.00 | 70 | 1014.4 |
| 20260507225007 | 23 | 101 | 0.0 | 1.6 | 0.00 | 0.00 | 0.00 | 71 | 1014.2 |
| 20260507224530 | 23 | 101 | 0.0 | 1.6 | 0.00 | 0.00 | 0.00 | 71 | 1014.1 |
| 20260507224010 | 23 | 263 | 0.0 | 3.2 | 0.00 | 0.00 | 0.00 | 70 | 1014.0 |
| 20260507223510 | 23 | 42 | 0.0 | 3.2 | 0.00 | 0.00 | 0.00 | 70 | 1014.0 |
| 20260507223025 | 23 | 63 | 0.0 | 1.6 | 0.00 | 0.00 | 0.00 | 70 | 1013.9 |